ZL1TQN Weather Reports


Display with metric or nautical units.
time (UTC)temp
F
wind
direction
speed
MPH
gust
MPH
rain 1hr
in
rain 24hr
in
rain mn
in
humidity
%
barometer
mb
20260904071506 56 267 4.0 10.0 0.00 0.11 0.13 74 1018.0
20260904071006 56 266 5.0 10.0 0.00 0.11 0.13 74 1018.0
20260904070006 56 265 6.0 12.0 0.00 0.11 0.13 74 1018.0
20260904065506 56 245 3.0 12.0 0.00 0.11 0.13 74 1018.0
20260904065006 56 268 5.0 12.0 0.00 0.11 0.13 74 1018.0
20260904064506 56 253 3.0 7.0 0.00 0.11 0.13 74 1018.0
20260904064006 56 249 2.0 6.0 0.01 0.11 0.13 74 1018.0
20260904063006 56 250 3.0 6.0 0.04 0.11 0.13 74 1018.0
20260904062506 56 256 2.0 3.0 0.05 0.11 0.13 74 1018.0
20260904062006 56 253 2.0 3.0 0.05 0.11 0.13 74 1018.0
20260904061506 56 227 2.0 3.0 0.05 0.11 0.13 74 1018.0
20260904061006 56 240 2.0 3.0 0.06 0.11 0.13 74 1018.0
20260904060005 56 208 2.0 3.0 0.06 0.11 0.13 74 1018.0
20260904055506 56 275 2.0 3.0 0.06 0.11 0.13 74 1018.0
20260904055006 56 297 1.0 5.0 0.07 0.11 0.13 74 1018.0
20260904054506 56 281 1.0 5.0 0.08 0.11 0.13 74 1018.0
20260904054007 56 234 2.0 5.0 0.07 0.10 0.13 74 1018.0
20260904053505 56 255 2.0 6.0 0.06 0.09 0.11 74 1018.0
20260904053005 56 195 2.0 6.0 0.05 0.07 0.09 74 1018.0
20260904052005 56 215 1.0 10.0 0.05 0.06 0.09 74 1018.0
20260904050006 56 290 2.0 6.0 0.06 0.06 0.08 74 1018.0
20260904045506 56 276 2.0 9.0 0.05 0.05 0.07 74 1018.0
20260904045005 56 254 3.0 9.0 0.04 0.04 0.06 74 1018.0
20260904044505 56 273 5.0 7.0 0.03 0.03 0.06 74 1018.0
20260904044007 56 313 3.0 5.0 0.03 0.03 0.06 74 1018.0
20260904042506 56 292 5.0 12.0 0.02 0.02 0.04 74 1018.0
20260904042005 56 311 5.0 13.0 0.02 0.02 0.04 74 1018.0
20260904041506 56 306 6.0 13.0 0.01 0.01 0.03 74 1018.0
20260904041007 56 296 5.0 12.0 0.01 0.01 0.03 74 1018.0
20260904040005 56 278 6.0 12.0 0.00 0.00 0.02 74 1018.0
20260904035506 56 279 5.0 12.0 0.00 0.00 0.02 74 1018.0
20260904035006 56 306 3.0 12.0 0.00 0.00 0.02 74 1018.0
20260904034506 56 299 3.0 13.0 0.00 0.00 0.02 74 1018.0
20260904034006 56 298 5.0 13.0 0.00 0.00 0.02 74 1018.0
20260904033505 56 304 4.0 12.0 0.00 0.00 0.02 74 1018.0
20260904033006 56 278 6.0 12.0 0.00 0.00 0.02 74 1018.0
20260904032506 56 283 5.0 15.0 0.00 0.00 0.02 74 1018.0
20260904030006 56 301 10.0 18.0 0.01 0.00 0.02 74 1018.0
20260904025505 56 300 7.0 20.0 0.01 0.00 0.02 74 1018.0
20260904025005 56 314 10.0 20.0 0.01 0.00 0.02 74 1018.0
20260904024506 56 300 7.0 20.0 0.01 0.00 0.02 74 1018.0
20260904024006 56 299 7.0 20.0 0.01 0.00 0.02 74 1018.0